[Date Prev][Date Next][Thread Prev][Thread Next] - [Date Index][Thread Index][Author Index]

2 Line ISS Keps 3-6



ISS
1 25544U 98067A   06065.03106319  .00014352  00000-0  10234-3 0  4735
2 25544 051.6439 358.1483 0008246 331.9600 143.8164 15.74072204416903
----
Via the sarex mailing list at AMSAT.ORG courtesy of AMSAT-NA.
To unsubscribe, send "unsubscribe sarex" to Majordomo@amsat.org



AMSAT Top AMSAT Home